[[{"header":{"parameterUnit":"m.s-1","parameterCategory":1,"la1":30.2992,"la2":30.254,"lo1":-89.0895,"lo2":-89.0443,"dy":0.0025,"dx":0.0025,"nx":19,"ny":19,"refTime":"2026-04-12T21:00:00:Z","depth":0,"parameterNumber":2,"parameterNumberName":"U-component_of_WINDS"},"data":[0,0,0,-2.6713,-2.6713,-2.6685,-2.6684,-2.6661,-2.666,0,0,0,0,0,0,0,0,0,0,0,-2.6729,-2.6729,-2.6713,-2.6713,-2.6685,-2.6684,-2.6661,-2.666,0,0,0,0,0,0,0,0,0,0,0,-2.6729,-2.6729,-2.6729,-2.6713,-2.6685,-2.6684,-2.6661,-2.6678,0,0,0,0,0,0,0,0,0,0,-2.6703,-2.6725,-2.6729,-2.6729,-2.6713,-2.6685,-2.6684,-2.6678,-2.6676,-2.6679,0,-2.6683,0,-2.6672,-2.666,-2.666,0,0,0,-2.6707,-2.6726,-2.6712,-2.6729,-2.6713,-2.6685,-2.6696,-2.6677,-2.6675,-2.6677,-2.6683,-2.6681,-2.6671,-2.666,-2.666,-2.6695,-2.6695,0,0,-2.6709,-2.6728,-2.6713,-2.6711,-2.6717,-2.6697,-2.6695,-2.6676,-2.6683,-2.6682,-2.6681,-2.6671,-2.666,-2.6659,-2.6694,-2.6695,0,0,0,-2.6717,-2.6729,-2.6715,-2.6713,-2.6707,-2.6696,-2.6694,-2.6684,-2.6678,-2.668,-2.6671,-2.666,-2.6659,-2.6694,-2.6695,-2.6735,0,0,0,-2.6718,-2.6734,-2.6716,-2.6728,-2.6707,-2.6695,-2.6703,-2.6679,-2.6676,-2.6671,-2.666,-2.6659,-2.6693,-2.6694,-2.6733,-2.675,0,0,0,-2.6728,-2.6735,-2.6734,-2.6729,-2.6717,-2.6695,-2.6687,-2.6678,-2.6671,-2.666,-2.6659,-2.6693,-2.6694,-2.6731,-2.6747,-2.6765,0,0,0,-2.6745,-2.6769,-2.6735,-2.6758,-2.6718,-2.6721,-2.6687,-2.6688,-2.6683,-2.6659,-2.6693,-2.6695,-2.673,-2.6745,-2.6763,-2.6783,-2.6793,0,0,-2.6786,-2.6775,-2.6787,-2.6756,-2.677,-2.6724,-2.6743,-2.672,-2.6701,-2.6698,-2.6699,-2.6734,-2.6747,-2.6765,-2.6848,-2.6856,0,0,0,-2.6806,-2.6815,-2.6815,-2.6812,-2.6797,-2.6785,-2.6757,-2.6749,-2.6746,-2.6704,-2.6745,-2.6752,-2.6762,-2.6771,-2.6778,-2.6785,-2.67,-2.67,-2.67,-2.6889,-2.6866,-2.6885,-2.6858,-2.6857,-2.683,-2.6826,-2.681,-2.6785,-2.6796,-2.6794,-2.6848,-2.6858,-2.6864,-2.6871,-2.6804,-2.6804,-2.6804,-2.6804,-2.6946,-2.6955,-2.6925,-2.6932,-2.6907,-2.6913,-2.6889,-2.6872,-2.6874,-2.6846,-2.6854,-2.6824,-2.6874,-2.6879,-2.6807,-2.6807,-2.6806,-2.6806,-2.6806,-2.6996,-2.6996,-2.6988,-2.6983,-2.6983,-2.6956,-2.696,-2.6938,-2.6916,-2.6924,-2.6919,-2.6919,-2.6914,-2.6924,-2.6924,-2.6924,-2.6924,-2.6924,-2.6925,-2.7051,-2.704,-2.7046,-2.7035,-2.7031,-2.7024,-2.7,-2.6996,-2.6986,-2.6969,-2.6969,-2.6943,-2.6884,-2.6868,-2.6927,-2.6927,-2.6926,-2.6926,-2.6926,-2.7114,-2.7097,-2.7107,-2.7104,-2.7089,-2.7091,-2.7064,-2.7058,-2.7052,-2.7055,-2.7029,-2.6989,-2.6975,-2.6969,-2.6956,-2.7035,-2.7035,-2.7035,-2.7035,-2.7155,-2.7147,-2.7153,-2.715,-2.7145,-2.7122,-2.7135,-2.7118,-2.7097,-2.7092,-2.7079,-2.706,-2.7056,-2.7044,-2.7037,-2.7024,-2.7118,-2.7118,-2.7118,-2.7192,-2.7184,-2.7198,-2.7179,-2.7167,-2.7157,-2.7169,-2.7167,-2.714,-2.7121,-2.7088,-2.7084,-2.7055,-2.7047,-2.7023,-2.7012,-2.6989,0,0]},{"header":{"parameterUnit":"m.s-1","parameterCategory":1,"la1":30.2992,"la2":30.254,"lo1":-89.0895,"lo2":-89.0443,"dy":0.0025,"dx":0.0025,"nx":19,"ny":19,"refTime":"2026-04-12T21:00:00:Z","depth":0,"parameterNumber":3,"parameterNumberName":"V-component_of_WINDS"},"data":[0,0,0,3.7559,3.7558,3.7534,3.7534,3.7483,3.7482,0,0,0,0,0,0,0,0,0,0,0,3.7554,3.7554,3.7559,3.7558,3.7534,3.7534,3.7483,3.7482,0,0,0,0,0,0,0,0,0,0,0,3.7555,3.7554,3.7553,3.7558,3.7534,3.7534,3.7483,3.7508,0,0,0,0,0,0,0,0,0,0,3.7534,3.752,3.7554,3.7553,3.7557,3.7534,3.7534,3.751,3.7507,3.7485,0,3.7465,0,3.7473,3.7478,3.7478,0,0,0,3.7565,3.7522,3.7527,3.7553,3.7557,3.7534,3.7547,3.7508,3.7505,3.7481,3.7464,3.7463,3.7472,3.7477,3.7477,3.7336,3.7335,0,0,3.7567,3.7543,3.7529,3.7524,3.7528,3.7548,3.7546,3.7506,3.7486,3.7464,3.7462,3.7471,3.7477,3.7476,3.7337,3.7336,0,0,0,3.7565,3.7544,3.755,3.7525,3.7523,3.7547,3.7545,3.7487,3.7491,3.7462,3.7471,3.7476,3.7476,3.7338,3.7337,3.7265,0,0,0,3.7566,3.7543,3.755,3.7535,3.7523,3.7505,3.7526,3.7494,3.749,3.7471,3.7476,3.7475,3.7339,3.7337,3.727,3.7234,0,0,0,3.756,3.7543,3.7536,3.7534,3.7523,3.7506,3.7508,3.7494,3.7495,3.7477,3.7475,3.734,3.7338,3.7274,3.7241,3.7192,0,0,0,3.7545,3.7469,3.7534,3.7454,3.7523,3.7463,3.7509,3.7464,3.7441,3.7476,3.7339,3.7337,3.7275,3.7245,3.7196,3.7146,3.7123,0,0,3.7437,3.7456,3.741,3.7468,3.7391,3.7469,3.7381,3.7379,3.7397,3.7355,3.7352,3.7268,3.7241,3.7193,3.7005,3.6986,0,0,0,3.7368,3.7335,3.732,3.7298,3.7298,3.7295,3.731,3.7311,3.7277,3.7372,3.7238,3.7223,3.7195,3.7172,3.7157,3.7135,3.7325,3.7326,3.7326,3.7179,3.7211,3.7139,3.7167,3.7145,3.7165,3.715,3.7153,3.7187,3.7156,3.7143,3.7025,3.6998,3.6986,3.6963,3.7119,3.7119,3.7119,3.7119,3.7024,3.6983,3.7036,3.6985,3.7018,3.6974,3.6991,3.7018,3.6982,3.7036,3.7013,3.707,3.6965,3.6947,3.7113,3.7114,3.7115,3.7115,3.7116,3.6903,3.6889,3.6893,3.6868,3.6844,3.6876,3.6841,3.6872,3.69,3.6878,3.6868,3.687,3.6875,3.6871,3.6871,3.6871,3.687,3.687,3.687,3.6776,3.6783,3.6751,3.6748,3.674,3.6733,3.6755,3.6747,3.6746,3.6771,3.6771,3.6809,3.695,3.6984,3.6863,3.6865,3.6865,3.6866,3.6866,3.6605,3.665,3.66,3.6592,3.6593,3.6569,3.6611,3.6593,3.6591,3.6573,3.6618,3.6717,3.6737,3.675,3.6779,3.6612,3.6612,3.6612,3.6612,3.6503,3.6518,3.6476,3.6463,3.6453,3.6487,3.6429,3.6446,3.647,3.6471,3.65,3.6541,3.6553,3.6566,3.6583,3.661,3.6404,3.6404,3.6404,3.64,3.6417,3.6362,3.639,3.6394,3.6396,3.6344,3.6325,3.6361,3.6396,3.6473,3.6482,3.6549,3.6569,3.6602,3.6627,3.6678,0,0]}]]